[[{"header":{"parameterUnit":"m.s-1","parameterCategory":1,"la1":30.2991,"la2":30.254,"lo1":-89.0895,"lo2":-89.0444,"dy":0.0017,"dx":0.0017,"nx":28,"ny":28,"refTime":"2025-03-17T21:00:00:Z","depth":0,"parameterNumber":2,"parameterNumberName":"U-component_of_WINDS"},"data":[0,0,0,0,0,0,0,0,0,0,0,0,0,0,0,0,0,0,0,0,0,0,0,0,0,0,0,0,0,0,0,0,0,0,0,0,0,0,0,0,0,0,0,0,0,0,0,0,0,0,0,0,0,0,0,0,0,0,-3.2198,-3.2199,0,-3.2319,-3.232,-3.2322,-3.2329,-3.2327,-3.2326,-3.2325,-3.2449,-3.2453,-3.2458,0,0,0,0,0,0,0,0,0,0,0,0,0,-3.1975,-3.1979,-3.2198,-3.2199,-3.2201,-3.2319,-3.232,-3.2322,-3.2329,-3.2327,-3.2325,-3.2324,-3.2447,-3.2453,-3.2458,0,0,0,0,0,0,0,0,0,0,0,0,0,-3.2081,-3.198,-3.2198,-3.2219,-3.2222,-3.2318,-3.232,-3.2322,-3.2329,-3.2327,-3.2325,-3.2323,-3.2446,-3.2452,-3.2459,-3.2543,0,0,-3.248,-3.2483,0,0,0,0,0,0,0,0,-3.2075,-3.209,-3.2214,-3.2217,-3.2221,-3.2307,-3.2287,-3.2396,-3.233,-3.2288,-3.2324,-3.2322,-3.2403,-3.2413,-3.2441,-3.2549,-3.2554,-3.2481,-3.2485,-3.2488,-3.249,0,0,0,0,0,0,0,-3.2068,-3.2084,-3.2246,-3.2216,-3.222,-3.2223,-3.2235,-3.2308,-3.2356,-3.2292,-3.2293,-3.2307,-3.2405,-3.2434,-3.2444,-3.2556,-3.2481,-3.2487,-3.2491,-3.2494,-3.2742,-3.2744,0,0,0,0,0,0,-3.2056,-3.2078,-3.2242,-3.2249,-3.2142,-3.2228,-3.2243,-3.2281,-3.2355,-3.2365,-3.2308,-3.2307,-3.2423,-3.2436,-3.2448,-3.2553,-3.2488,-3.2494,-3.2498,-3.274,-3.2743,-3.2745,0,0,0,0,0,0,-3.2052,-3.2071,-3.2237,-3.2164,-3.2185,-3.2234,-3.2278,-3.2285,-3.2314,-3.2368,-3.2376,-3.2329,-3.2422,-3.2438,-3.252,-3.2557,-3.2497,-3.2504,-3.2737,-3.274,-3.2744,-3.2761,0,0,0,0,0,0,-3.2045,-3.2069,-3.2101,-3.2165,-3.2189,-3.2306,-3.228,-3.2288,-3.2326,-3.2325,-3.239,-3.2399,-3.2422,-3.251,-3.2527,-3.2565,-3.2509,-3.2734,-3.2738,-3.2743,-3.2758,-3.2765,-3.2772,0,0,0,0,0,-3.2037,-3.2101,-3.2103,-3.2122,-3.223,-3.2308,-3.2322,-3.2347,-3.2329,-3.2362,-3.2397,-3.2397,-3.255,-3.2518,-3.2537,-3.2578,-3.2731,-3.2737,-3.2742,-3.2755,-3.2764,-3.2771,0,0,0,0,0,0,-3.204,-3.2109,-3.2112,-3.2198,-3.2247,-3.2309,-3.2351,-3.2356,-3.2412,-3.2408,-3.2437,-3.2452,-3.2533,-3.2564,-3.2527,-3.2665,-3.2639,-3.2648,-3.2641,-3.2651,-3.2657,-3.2648,-3.2515,0,0,0,0,0,-3.205,-3.2108,-3.2166,-3.2236,-3.2261,-3.2302,-3.2337,-3.2352,-3.2404,-3.2425,-3.2466,-3.2517,-3.2577,-3.2616,-3.2674,-3.2763,-3.2778,-3.2801,-3.2808,-3.2813,-3.2821,-3.2872,-3.2883,-3.2763,-3.2763,-3.2763,0,0,-3.2073,-3.2118,-3.2152,-3.2238,-3.2278,-3.2337,-3.2319,-3.2382,-3.2427,-3.2435,-3.2514,-3.2546,-3.2605,-3.2691,-3.2731,-3.272,-3.2858,-3.282,-3.2824,-3.2829,-3.2879,-3.289,-3.29,-3.2767,-3.2766,-3.2766,0,0,-3.2144,-3.2183,-3.2247,-3.2288,-3.2348,-3.2376,-3.2391,-3.2453,-3.2475,-3.2555,-3.2563,-3.2617,-3.2719,-3.2761,-3.2796,-3.2886,-3.2888,-3.2904,-3.294,-3.2989,-3.2999,-3.3007,-3.304,-3.3051,-3.2912,-3.2912,-3.2912,0,-3.2163,-3.2253,-3.2279,-3.2343,-3.2381,-3.2391,-3.2456,-3.2495,-3.2571,-3.2598,-3.2584,-3.2714,-3.2754,-3.2851,-3.2873,-3.2901,-3.292,-3.2896,-3.2995,-3.3004,-3.3012,-3.3044,-3.3056,-3.2913,-3.2913,-3.2913,-3.2913,0,-3.2275,-3.2337,-3.2381,-3.2455,-3.2498,-3.2562,-3.2599,-3.264,-3.2652,-3.2682,-3.2764,-3.2814,-3.2882,-3.2907,-3.2919,-3.3006,-3.2997,-3.2989,-3.2963,-3.3025,-3.3055,-3.3067,-3.2916,-3.2915,-3.2915,-3.2914,0,0,-3.2349,-3.2438,-3.2454,-3.2488,-3.2557,-3.2606,-3.2672,-3.2739,-3.2774,-3.2827,-3.2883,-3.2971,-3.2965,-3.3004,-3.3022,-3.3065,-3.3134,-3.3052,-3.3054,-3.3066,-3.3234,-3.324,-3.3253,-3.3137,-3.3139,-3.3141,-3.3229,0,-3.2427,-3.2543,-3.257,-3.267,-3.2728,-3.274,-3.2798,-3.2847,-3.2876,-3.2931,-3.2964,-3.3026,-3.3012,-3.3036,-3.308,-3.3116,-3.3168,-3.311,-3.319,-3.3192,-3.3174,-3.3269,-3.3274,-3.3355,-3.3241,-3.3243,-3.3245,0,-3.2534,-3.259,-3.2696,-3.2759,-3.2785,-3.2835,-3.29,-3.2952,-3.3009,-3.3028,-3.3073,-3.3087,-3.3156,-3.3128,-3.3225,-3.3185,-3.322,-3.3243,-3.3247,-3.3255,-3.3222,-3.3279,-3.3381,-3.3393,-3.3263,-3.3262,-3.3261,0,-3.2578,-3.268,-3.2757,-3.2786,-3.2861,-3.2897,-3.293,-3.2985,-3.3025,-3.3082,-3.3108,-3.3173,-3.3208,-3.3258,-3.329,-3.3266,-3.3385,-3.3359,-3.3403,-3.3402,-3.3427,-3.3425,-3.3536,-3.3449,-3.3449,-3.3449,-3.3449,0,-3.2663,-3.2727,-3.2778,-3.2825,-3.2898,-3.2929,-3.3001,-3.3034,-3.3083,-3.3138,-3.3153,-3.3204,-3.3242,-3.3299,-3.3325,-3.3402,-3.3418,-3.3435,-3.3441,-3.3434,-3.3432,-3.3456,-3.3452,-3.3452,-3.3452,-3.3451,-3.345,0,-3.2723,-3.276,-3.2845,-3.291,-3.2928,-3.2979,-3.3035,-3.3082,-3.3112,-3.3182,-3.32,-3.3248,-3.3316,-3.3353,-3.3438,-3.3455,-3.3542,-3.3545,-3.3523,-3.3525,-3.3567,-3.3563,-3.3698,-3.3718,-3.3618,-3.3619,-3.362,0,-3.2775,-3.2825,-3.2895,-3.2933,-3.2967,-3.3027,-3.3068,-3.3101,-3.3143,-3.3213,-3.3252,-3.3321,-3.3378,-3.3486,-3.3529,-3.3595,-3.36,-3.3643,-3.361,-3.3601,-3.3601,-3.3597,-3.3603,-3.3648,-3.3649,-3.365,-3.365,0,-3.2862,-3.2878,-3.2936,-3.3001,-3.305,-3.3103,-3.3155,-3.3185,-3.3227,-3.3274,-3.3344,-3.3388,-3.3476,-3.3544,-3.3614,-3.3649,-3.3657,-3.3661,-3.3675,-3.3667,-3.3652,-3.3661,-3.3538,-3.3657,-3.3656,-3.3656,-3.3656,-3.3655,-3.292,-3.2966,-3.3023,-3.3087,-3.3131,-3.318,-3.3227,-3.3265,-3.3323,-3.3397,-3.3414,-3.3488,-3.3545,-3.364,-3.3677,-3.3736,-3.3728,-3.3747,-3.3752,-3.3757,-3.3759,-3.3643,-3.3749,-3.3749,-3.3749,-3.3749,-3.3748,0,-3.3009,-3.3047,-3.3106,-3.3179,-3.323,-3.3234,-3.3293,-3.3335,-3.34,-3.3453,-3.3509,-3.3591,-3.3658,-3.3707,-3.3776,-3.3814,-3.382,-3.3831,-3.3829,-3.3837,-3.3762,-3.3743,-3.3826,-3.3826,-3.3826,-3.3826,-3.3826,-3.3826,-3.3061,-3.3138,-3.3161,-3.3261,-3.3299,-3.3371,-3.3405,-3.3451,-3.3493,-3.3583,-3.3639,-3.3671,-3.3723,-3.3797,-3.3859,-3.3872,-3.3897,-3.3908,-3.3921,-3.385,-3.3842,-3.3834,-3.3817,-3.3913,-3.3913,-3.3991,-3.3992,-3.3993]},{"header":{"parameterUnit":"m.s-1","parameterCategory":1,"la1":30.2991,"la2":30.254,"lo1":-89.0895,"lo2":-89.0444,"dy":0.0017,"dx":0.0017,"nx":28,"ny":28,"refTime":"2025-03-17T21:00:00:Z","depth":0,"parameterNumber":3,"parameterNumberName":"V-component_of_WINDS"},"data":[0,0,0,0,0,0,0,0,0,0,0,0,0,0,0,0,0,0,0,0,0,0,0,0,0,0,0,0,0,0,0,0,0,0,0,0,0,0,0,0,0,0,0,0,0,0,0,0,0,0,0,0,0,0,0,0,0,0,1.7873,1.7872,0,1.7868,1.7868,1.7868,1.7862,1.7862,1.7862,1.7862,1.7854,1.7854,1.7853,0,0,0,0,0,0,0,0,0,0,0,0,0,1.7873,1.7873,1.7873,1.7872,1.7872,1.7868,1.7868,1.7868,1.7862,1.7862,1.7862,1.7862,1.7854,1.7854,1.7853,0,0,0,0,0,0,0,0,0,0,0,0,0,1.7871,1.7873,1.7873,1.7869,1.7869,1.7868,1.7868,1.7868,1.7862,1.7862,1.7862,1.7862,1.7854,1.7854,1.7853,1.7855,0,0,1.7853,1.7853,0,0,0,0,0,0,0,0,1.7871,1.7871,1.787,1.7869,1.7869,1.7866,1.7865,1.7863,1.7862,1.7865,1.7862,1.7862,1.7858,1.7857,1.7856,1.7854,1.7854,1.7853,1.7853,1.7852,1.7852,0,0,0,0,0,0,0,1.7871,1.7871,1.7871,1.787,1.7869,1.7867,1.7867,1.7865,1.7862,1.7864,1.7864,1.7864,1.7857,1.7857,1.7856,1.7854,1.7853,1.7852,1.7852,1.7852,1.7854,1.7854,0,0,0,0,0,0,1.7872,1.7871,1.7871,1.7871,1.787,1.7867,1.7867,1.7867,1.7862,1.7861,1.7864,1.7864,1.7857,1.7856,1.7856,1.7858,1.7852,1.7852,1.7852,1.7853,1.7854,1.7854,0,0,0,0,0,0,1.7873,1.7872,1.7871,1.7871,1.7871,1.7867,1.7868,1.7867,1.7866,1.7861,1.7861,1.7864,1.7857,1.7856,1.7856,1.7857,1.7852,1.7852,1.7853,1.7854,1.7854,1.7861,0,0,0,0,0,0,1.7873,1.7873,1.7873,1.7871,1.7871,1.7872,1.7868,1.7867,1.7866,1.7866,1.7861,1.786,1.7857,1.7856,1.7855,1.7857,1.7852,1.7853,1.7853,1.7854,1.786,1.7861,1.7862,0,0,0,0,0,1.7873,1.7874,1.7873,1.7873,1.7872,1.7872,1.7871,1.7868,1.7866,1.7867,1.7864,1.786,1.7857,1.7856,1.7855,1.7857,1.7853,1.7853,1.7854,1.786,1.7861,1.7862,0,0,0,0,0,0,1.7875,1.7874,1.7873,1.7874,1.7873,1.7871,1.7871,1.7869,1.7868,1.7867,1.7862,1.7861,1.7862,1.7859,1.7857,1.7858,1.7855,1.7855,1.786,1.7861,1.7862,1.7862,1.7852,0,0,0,0,0,1.7876,1.7877,1.7876,1.7877,1.7877,1.7874,1.7874,1.7872,1.787,1.7869,1.7867,1.7864,1.7863,1.7862,1.786,1.7861,1.7859,1.7861,1.7862,1.7863,1.7863,1.7864,1.7865,1.7855,1.7855,1.7855,0,0,1.7877,1.7877,1.7878,1.7877,1.7876,1.7877,1.7874,1.7874,1.7874,1.7869,1.7869,1.7867,1.7864,1.7864,1.7864,1.7862,1.7866,1.7863,1.7864,1.7863,1.7864,1.7865,1.7866,1.7855,1.7855,1.7855,0,0,1.788,1.788,1.7882,1.7882,1.7881,1.788,1.788,1.7879,1.7878,1.7878,1.7874,1.7874,1.7872,1.787,1.7869,1.7874,1.787,1.7873,1.7877,1.7878,1.7879,1.7879,1.7881,1.7882,1.7873,1.7873,1.7873,0,1.7882,1.7883,1.7882,1.7884,1.7884,1.7882,1.7883,1.7882,1.7881,1.788,1.7879,1.7877,1.7874,1.7875,1.7876,1.7875,1.7876,1.7873,1.7879,1.788,1.788,1.7882,1.7883,1.7874,1.7874,1.7874,1.7874,0,1.7885,1.7887,1.7888,1.7889,1.7889,1.789,1.7889,1.7889,1.7888,1.7887,1.7887,1.7885,1.7883,1.7883,1.7881,1.7884,1.7883,1.788,1.7876,1.7882,1.7883,1.7884,1.7874,1.7874,1.7874,1.7874,0,0,1.7888,1.789,1.789,1.7891,1.7891,1.7892,1.7893,1.7894,1.7894,1.7893,1.7894,1.7893,1.7892,1.789,1.7888,1.7889,1.7894,1.7887,1.7886,1.7888,1.7897,1.7899,1.7899,1.7892,1.7892,1.7892,1.7897,0,1.7891,1.7894,1.7894,1.7897,1.7899,1.7897,1.7899,1.7899,1.7898,1.7898,1.7897,1.7897,1.7895,1.7894,1.7895,1.7893,1.7895,1.7893,1.7892,1.7892,1.7892,1.79,1.7902,1.7906,1.7898,1.7898,1.7898,0,1.7894,1.7896,1.7899,1.7901,1.7901,1.7903,1.7904,1.7904,1.7904,1.7904,1.7904,1.7902,1.7903,1.79,1.7902,1.79,1.79,1.7899,1.7899,1.7898,1.7895,1.7899,1.7908,1.7908,1.7899,1.7899,1.7899,0,1.7896,1.7899,1.7902,1.7902,1.7904,1.7905,1.7906,1.7906,1.7907,1.7907,1.7908,1.7908,1.7908,1.7908,1.7906,1.7904,1.7907,1.7904,1.7906,1.7906,1.7906,1.7906,1.7914,1.7907,1.7907,1.7907,1.7907,0,1.7899,1.7901,1.7903,1.7904,1.7907,1.7907,1.791,1.791,1.791,1.7912,1.791,1.7911,1.7909,1.791,1.7909,1.791,1.791,1.7909,1.7909,1.7909,1.7909,1.7908,1.7908,1.7907,1.7907,1.7907,1.7907,0,1.7901,1.7902,1.7905,1.7908,1.7908,1.791,1.7912,1.7913,1.7913,1.7915,1.7915,1.7915,1.7916,1.7915,1.7915,1.7914,1.7916,1.7915,1.7917,1.7916,1.7919,1.7918,1.7926,1.7927,1.7919,1.792,1.792,0,1.7902,1.7904,1.7907,1.7909,1.791,1.7912,1.7914,1.7914,1.7915,1.7917,1.7918,1.792,1.7921,1.7922,1.7921,1.7922,1.7921,1.7924,1.7921,1.7921,1.7921,1.792,1.7921,1.7924,1.7924,1.7924,1.7924,0,1.7904,1.7906,1.7908,1.7912,1.7914,1.7916,1.7918,1.7919,1.792,1.7921,1.7923,1.7924,1.7926,1.7927,1.7928,1.7927,1.7926,1.7925,1.7926,1.7926,1.7926,1.7926,1.7918,1.7925,1.7925,1.7925,1.7925,1.7924,1.7906,1.7908,1.7912,1.7915,1.7917,1.7919,1.7921,1.7922,1.7924,1.7927,1.7927,1.7929,1.793,1.7931,1.7932,1.7933,1.7932,1.7932,1.7932,1.7932,1.7933,1.7927,1.7933,1.7933,1.7933,1.7933,1.7933,0,1.7909,1.7911,1.7914,1.7918,1.7921,1.7921,1.7924,1.7925,1.7928,1.793,1.7932,1.7934,1.7936,1.7937,1.7938,1.7939,1.7938,1.7939,1.7939,1.7939,1.7934,1.7933,1.794,1.794,1.794,1.794,1.794,1.794,1.791,1.7914,1.7916,1.7921,1.7923,1.7927,1.7928,1.793,1.7932,1.7936,1.7938,1.7939,1.794,1.7942,1.7944,1.7944,1.7944,1.7945,1.7945,1.794,1.7939,1.7938,1.7938,1.7945,1.7945,1.795,1.795,1.795]}]]